VANGUARD 2

Satellite information

Favourite Embed

Satellite Type and Status

PAYLOADIN ORBIT

Key statistics

Satellite VANGUARD 2 at a glance.

Uptime

24249

Days in orbit

Revolutions

≈ 11.9

Per day

Orbit

MEO

Medium Earth Orbit

Inclination

32.9

Latest

Satellite identification and parameters

Extended collection of information and parameters for VANGUARD 2.

Object identification

Identified? True

Debris? False

Object name: VANGUARD 2

International designator: 1959-001A

Object number (NORAD): 11

Object ID (CCSDS): 11

Country: UNITED STATES OF AMERICA (US)

Current information (Y/N): Y

RCS size: MEDIUM

Orbital parameters

Period: 121.017 minutes

Inclination: 32.8791 deg

SMA: 8104.459 km

Apoapsis: 2900.953 km

Periapsis: 551.695 km

RAAN: 304.6291 deg

Eccentricy: 0.1449361

Argument of periapsis: 262.9346 deg

Mean anomaly: 80.478 deg

Mean motion: 11.89917152 rev/day

Mean motion (dot): 0.00000726 rev/day2

B* drag term: 0.00036024 1/REarth

Two-line elements (TLE)

Creation date: July 9, 2025, 2:22 a.m.

Reference frame: TEME

Reference center: EARTH

Epoch: July 8, 2025, 4:37 p.m. UTC

TLE line 0: 0 VANGUARD 2

TLE line 1: 1 00011U 59001A 25189.69304989 .00000726 00000-0 36024-3 0 9993

TLE line 2: 2 00011 32.8791 304.6291 1449361 262.9346 80.4780 11.89917152494535

Live tracking on map

Real-time ground track for satellite VANGUARD 2.

In-orbit conjunctions

There are no conjunctions computed for VANGUARD 2, at the moment. Check back to stay up to date, as we update our databases every day.

Go to all conjunctions

Associated space launch

Vanguard II is an Earth orbiting satellite and the first weather satellite. It was designed to measure cloud-cover distribution over the daylight portion of its orbit for a period of 19 days and to provide information on the density of the atmosphere.

VANGUARD 2 was lifted into orbit during the mission ‘Vanguard | Vanguard II’, on board a Vanguard space rocket.

The launch took place on Feb. 17, 1959, 3:55 p.m. from Launch Complex 18A.

For more information about the launch, click the button.

Launch to space Vanguard | Vanguard II
Vanguard | Vanguard II

Agency: N/A

Status: Launch Successful

Launch date: Feb. 17, 1959, 3:55 p.m. UTC

Rocket: Vanguard

Launch pad: Launch Complex 18A

Location: Cape Canaveral SFS, FL, USA

...

Latest news about this satellite

There are no fresh news available about this satellite. Check back as we update our databases every day.


Newsletter sign-up

Weekly statistics, charts and insights to help you stay on top of the space industry.